Voltar ao catálogo

STARLINK-5924

AtivoComunicaçõesVLEO
NORAD 55963·PAYLOAD·🇺🇸 United States

Lançado Mar 17, 2023 de Vandenberg Space Force Base

Loading…

Próximas Passagens (próximas 24 horas)

TLE

AtualizadoSource: CelesTrak SupGP

Época: Sep 14, 2026, 21:49 UTC

1 55963C 23037BB  26257.90951389 -.00026049  00000+0 -21833-2 0  2577
2 55963  70.0011 147.3308 0002720 271.1876 225.1629 14.98340167    19

Acompanhe STARLINK-5924 em tempo real com AllMySat

Download on the App Store